Weather History for San Antonio, TX

Change the Weather History Date:

Tuesday, July 23, 2013

  Actual Average Record
Temperature  
Mean Temperature 90 °F 85 °F  
Max Temperature 99 °F 95 °F 103 °F (1994)
Min Temperature 80 °F 75 °F 67 °F (1988)
Degree Days  
Heating Degree Days 0 0  
Month to date heating degree days 0 0  
Since 1 June heating degree days 0 0  
Since 1 July heating degree days 0 0  
Cooling Degree Days 25 20  
Month to date cooling degree days 467 446  
Year to date cooling degree days 1659 1598  
Since 1 June cooling degree days 1042 969  
Growing Degree Days 40 (Base 50)    
Moisture  
Dew Point 70 °F    
Average Humidity 56    
Maximum Humidity 79    
Minimum Humidity 33    
Precipitation  
Precipitation 0.00 in 0.06 in 1.72 in (1919)
Month to date precipitation 0.68 2.28  
Year to date precipitation 22.54 18.39  
Snow  
Snow 0.00 in - - ()
Month to date snowfall 0.0  
Since 1 June snowfall 0.0  
Since 1 July snowfall 0.0  
Snow Depth 0.00 in    
Sea Level Pressure  
Sea Level Pressure 29.92 in    
Wind  
Wind Speed 13 mph (SSE)    
Max Wind Speed 20 mph    
Max Gust Speed 26 mph    
Visibility 10 miles    
Events      
T = Trace of Precipitation, MM = Missing Value Source: NWS Daily Summary

Daily Weather History Graph

Daily Weather History Graph

Search for Another Location

Airport:

Trip Planner

Search our weather history database for the weather conditions in past years. The results will help you decide how hot, cold, wet, or windy it might be!

Date:

Astronomy

Jul. 23, 2013 Rise Set
Actual Time 6:48 AM CDT 8:31 PM CDT
Civil Twilight 6:22 AM CDT 8:58 PM CDT
Nautical Twilight 5:50 AM CDT 9:29 PM CDT
Astronomical Twilight 5:17 AM CDT 10:02 PM CDT
Moon 9:13 PM CDT (7/23) 7:49 AM CDT (7/23)
Length of Visible Light 14h 35m
Length of Day
13h 43m
Full, 99% of the Moon is Illuminated
Jul 23
Full
Jul 29
Last Quarter
Aug 6
New
Aug 14
First Quarter
Aug 20
Full

Hourly Weather History & Observations

Time (CDT) Temp. Heat Index Dew Point Humidity Pressure Visibility Wind Dir Wind Speed Gust Speed Precip Events Conditions
12:51 AM 82.9 °F 90.2 °F 75.0 °F 77% 29.94 in 10.0 mi SSE 12.7 mph - N/A   Overcast
1:51 AM 82.0 °F 88.6 °F 75.0 °F 79% 29.94 in 10.0 mi SSE 16.1 mph - N/A   Overcast
2:51 AM 82.0 °F 88.6 °F 75.0 °F 79% 29.93 in 9.0 mi SSE 12.7 mph - N/A   Overcast
3:51 AM 81.0 °F 86.2 °F 73.9 °F 79% 29.93 in 10.0 mi South 11.5 mph 18.4 mph N/A   Overcast
4:51 AM 81.0 °F 86.2 °F 73.9 °F 79% 29.93 in 9.0 mi South 13.8 mph - N/A   Mostly Cloudy
5:51 AM 80.1 °F 84.2 °F 73.0 °F 79% 29.94 in 10.0 mi South 11.5 mph - N/A   Mostly Cloudy
6:51 AM 80.1 °F 84.2 °F 73.0 °F 79% 29.96 in 8.0 mi South 12.7 mph - N/A   Overcast
7:51 AM 80.1 °F 84.2 °F 73.0 °F 79% 29.96 in 10.0 mi South 12.7 mph - N/A   Mostly Cloudy
8:51 AM 82.0 °F 86.7 °F 72.0 °F 71% 29.98 in 10.0 mi South 13.8 mph - N/A   Overcast
9:07 AM 82.4 °F 87.2 °F 71.6 °F 70% 30.04 in 10.0 mi SSE 11.5 mph - N/A   Mostly Cloudy
9:51 AM 82.9 °F 88.0 °F 72.0 °F 69% 29.98 in 10.0 mi South 9.2 mph - N/A   Mostly Cloudy
10:51 AM 87.1 °F 92.8 °F 71.1 °F 59% 29.97 in 10.0 mi South 13.8 mph 17.3 mph N/A   Scattered Clouds
11:51 AM 90.0 °F 94.5 °F 69.1 °F 50% 29.96 in 10.0 mi South 11.5 mph 18.4 mph N/A   Mostly Cloudy
12:51 PM 91.9 °F 96.9 °F 69.1 °F 47% 29.95 in 10.0 mi SSE 13.8 mph 21.9 mph N/A   Mostly Cloudy
1:51 PM 95.0 °F 99.0 °F 66.9 °F 40% 29.94 in 10.0 mi SSE 10.4 mph 23.0 mph N/A   Mostly Cloudy
2:51 PM 96.1 °F 99.9 °F 66.9 °F 38% 29.91 in 10.0 mi South 12.7 mph 20.7 mph N/A   Mostly Cloudy
3:51 PM 99.0 °F 102.3 °F 64.9 °F 33% 29.88 in 10.0 mi SSE 13.8 mph 20.7 mph N/A   Mostly Cloudy
4:51 PM 99.0 °F 102.3 °F 64.9 °F 33% 29.87 in 10.0 mi South 9.2 mph 20.7 mph N/A   Scattered Clouds
5:51 PM 98.1 °F 101.2 °F 64.9 °F 34% 29.85 in 10.0 mi SE 10.4 mph 21.9 mph N/A   Scattered Clouds
6:51 PM 97.0 °F 98.3 °F 63.0 °F 32% 29.84 in 10.0 mi South 11.5 mph - N/A   Partly Cloudy
7:51 PM 96.1 °F 96.9 °F 62.1 °F 32% 29.83 in 10.0 mi SSE 12.7 mph - N/A   Partly Cloudy
8:51 PM 93.0 °F 95.0 °F 64.9 °F 39% 29.83 in 10.0 mi SSE 18.4 mph - N/A   Partly Cloudy
9:51 PM 88.0 °F 96.5 °F 73.9 °F 63% 29.85 in 10.0 mi SSE 16.1 mph - N/A   Partly Cloudy
10:51 PM 86.0 °F 93.8 °F 73.9 °F 67% 29.87 in 10.0 mi SSE 16.1 mph 19.6 mph N/A   Clear
11:51 PM 82.9 °F 89.4 °F 73.9 °F 74% 29.88 in 10.0 mi SSE 13.8 mph 23.0 mph N/A   Clear